Location: Butte
(46.0040°N, 112.5340°W)
Time: 00:51:53
(UTC-07:00)

Daily predictions for brighter satellites

Satellite Brightness Start Highest point End
(mag) Time Altitude Azimuth Time Altitude Azimuth Time Altitude Azimuth
SL-16 R/B 4.4 04:09:01 19° NE 04:09:01 19° NE 04:10:36 10° NE
Lacrosse 5 4.1 04:24:03 21° ESE 04:24:03 21° ESE 04:27:33 10° ENE
CENTAUR R/B 3.5 04:28:32 40° NNE 04:28:32 40° NNE 04:32:58 10° NE
ATLAS 3B R/B 4.5 04:49:08 19° N 04:49:08 19° N 04:53:39 10° NE
Cosmos 2074 Rocket 4.2 04:49:56 10° S 04:56:07 67° E 05:02:20 10° NNE
CZ-4C R/B 4.4 04:57:29 17° N 04:57:51 17° N 05:02:06 10° NE
Cosmos 2369 Rocket 3.2 04:56:19 34° NNE 04:57:55 42° NE 05:03:18 10° SE
ATLAS 5 CENTAUR R/B 4.4 05:01:44 13° N 05:01:44 13° N 05:03:45 10° NNE
Cosmos 1603 4.2 05:01:03 37° S 05:03:06 58° ESE 05:08:39 10° NNE
Cosmos 2184 Rocket 3.9 05:08:15 10° S 05:14:24 87° E 05:20:40 10° N
Meteor 1-17 Rocket 4.5 05:22:58 76° WSW 05:23:11 78° WNW 05:28:44 10° N
Cosmos 1633 3.7 05:22:29 10° SSE 05:25:56 42° E 05:29:23 10° NNE
Cosmos 1943 4.4 05:20:55 10° S 05:26:08 41° ESE 05:31:24 10° NE
Feng Yun 1-1 Rocket 4.1 05:21:35 10° NNE 05:27:13 80° WNW 05:32:41 10° SSW
Meteor 1-20 Rocket 4.0 05:28:01 70° WNW 05:28:01 70° WNW 05:33:20 10° N
Abrixas rocket 4.0 05:28:43 32° ESE 05:28:43 32° ESE 05:31:01 10° E
Cosmos 2154 Rocket 4.4 05:24:20 10° S 05:30:26 62° E 05:36:33 10° NNE
Cosmos 2333 Rocket 4.3 05:34:29 13° N 05:34:29 13° N 05:35:19 10° N
DNEPR-1 R/B 4.4 05:32:54 49° WSW 05:34:39 66° NW 05:40:26 10° NNE
Cosmos 1943 Rocket 3.3 05:32:15 17° N 05:36:01 39° NE 05:41:08 10° ESE
Lacrosse 5 rocket 3.4 05:38:18 18° N 05:38:18 18° N 05:40:47 10° NE
Cosmos 2056 Rocket 3.5 05:40:01 55° WSW 05:40:01 55° WSW 05:44:43 10° S
SL-23 DEB 4.2 05:40:47 45° ENE 05:40:47 45° ENE 05:43:26 10° E
Okean 1 Rocket 3.2 05:35:51 10° S 05:40:13 72° E 05:44:36 10° NNE
Lacrosse 4 Rocket 3.4 05:39:10 18° N 05:41:04 24° NE 05:44:27 10° ESE
COSMO-SKYMED 1 2.4 05:43:05 10° SSE 05:47:25 82° WSW 05:48:37 47° NNW
SL-16 R/B 3.3 05:50:57 26° NNW 05:50:57 26° NNW 05:54:25 10° N
ADEOS II 3.9 05:45:36 10° N 05:46:57 17° NNW 05:46:57 17° NNW
Cosmos 1610 Rocket 4.4 05:44:16 10° SSW 05:50:27 72° W 05:56:45 10° N
Ariane Rocket 3.6 05:47:02 10° NNE 05:52:02 59° E 05:57:01 10° S
Cosmos 1624 Rocket 4.4 05:53:12 41° WSW 05:53:12 41° WSW 05:57:57 10° S
Cosmos 1602 3.6 05:51:09 10° SSW 05:55:06 73° W 05:59:05 10° N
Cosmos 44 Rocket 3.3 05:52:42 21° SW 05:56:16 83° NW 06:01:25 10° NE
DMSP B5D1-3 4.4 05:53:57 10° SSE 05:59:07 81° WSW 06:03:50 13° NNW
USA 215 3.4 05:52:48 10° NE 05:59:20 73° SE 06:05:51 10° SW
Okean 1-7 Rocket 3.4 05:58:58 32° NNW 06:00:56 69° W 06:05:17 10° S
SL-24 DEB 4.4 05:58:25 10° SSE 06:03:12 78° E 06:08:01 10° N
Cosmos 1300 Rocket 3.6 06:00:04 10° SSW 06:04:21 50° WNW 06:08:40 10° N
Cosmos 1892 Rocket 4.5 06:00:14 10° N 06:04:36 49° ENE 06:08:56 10° SSE
Meteor 1-19 Rocket 4.2 05:59:58 10° NNW 06:05:44 64° W 06:11:25 10° S
Lacrosse 5 1.8 06:03:20 26° SW 06:06:13 81° NW 06:11:22 10° NE
Meteor 1-28 Rocket 3.1 06:03:03 10° SSE 06:06:52 89° NE 06:09:25 20° NNW
Cosmos 192 4.3 06:02:21 10° SW 06:07:11 58° WNW 06:12:03 10° NNE
Cosmos 1900 4.3 06:05:10 28° NNW 06:07:47 87° ENE 06:12:43 10° SSE
Cosmos 2263 4.1 06:04:16 21° NNW 06:08:09 84° WSW 06:13:46 10° SSE
Helios 1B rocket 4.1 06:07:11 10° SE 06:10:54 32° ENE 06:14:37 10° N
Cosmos 1340 3.1 06:11:03 10° N 06:14:47 61° ENE 06:18:32 10° SSE
CENTAUR R/B 3.7 06:15:43 23° NW 06:17:50 27° NNW 06:23:54 10° NNE
Tiangong 2 2.2 06:17:36 30° SW 06:18:15 33° SSW 06:21:07 10° SE
Meteor 1-11 Rocket 3.7 06:12:52 10° SSW 06:18:38 62° WNW 06:24:18 10° N
Cosmos 2237 Rocket 4.2 06:19:51 11° NNW 06:19:51 11° NNW 06:20:25 10° NNW
Nadezhda 3 Rocket 4.2 06:14:38 10° NNW 06:20:47 51° W 06:26:53 10° SSW
IDEFIX/ARIANE 42P 4.2 06:16:51 10° NNE 06:21:39 37° E 06:26:26 10° SSE
CSL-04 Rocket 3.7 06:18:24 10° NNE 06:24:00 89° ESE 06:29:30 10° SSW
Cosmos 1452 Rocket 3.7 06:25:09 18° NW 06:28:54 50° WSW 06:33:58 10° S
CSL-04 Debris 4.2 06:24:41 10° NNE 06:30:11 86° ESE 06:35:41 10° SSW
Meteor 1-23 Rocket 4.2 06:25:49 10° NNW 06:31:18 62° W 06:36:46 10° S
Cosmos 1455 Rocket 3.9 06:27:27 10° S 06:31:38 52° E 06:35:53 10° NNE
USA 129 1.8 06:33:21 10° S 06:35:26 49° W 06:35:26 49° W
Meteor 2-4 Rocket 4.0 06:33:47 10° NNW 06:39:01 46° W 06:44:23 10° SSW
Okean 2 3.4 06:35:54 10° NNW 06:40:03 63° W 06:44:09 10° S
Cosmos 2369 Rocket 2.9 06:38:10 17° NW 06:41:51 34° WSW 06:46:54 10° SSW
Cosmos 1727 Rocket 4.2 06:35:51 10° N 06:42:03 74° E 06:48:14 10° SSE
ATLAS 3B R/B 4.3 06:36:44 10° NNW 06:42:20 24° NNE 06:47:41 10° ENE
ATLAS 5 CENTAUR R/B 4.1 06:44:00 10° NNW 06:48:10 20° NNE 06:52:36 10° ENE
CZ-4C R/B 4.2 06:43:10 10° NNW 06:48:47 27° NNE 06:54:58 10° E
Cosmos 2341 Rocket 4.3 06:44:26 10° SSW 06:50:26 45° WNW 06:56:25 10° N
Cosmos 44 3.6 06:45:16 10° SW 06:50:29 54° NW 06:55:32 10° NNE
SMAP 3.5 06:45:56 10° NNE 06:50:35 66° ESE 06:55:13 10° S
Meteor 1-5 Rocket 4.0 06:45:51 10° SSW 06:51:10 66° WNW 06:56:27 10° N
CZ-4 R/B 1.2 06:49:57 10° NNE 06:53:56 84° WNW 06:57:50 10° SSW
Cosmos 1536 3.7 06:50:37 10° SW 06:54:02 27° WNW 06:57:31 10° NNW
Cosmos 1025 Rocket 4.0 06:52:01 10° NNW 06:55:45 28° W 06:59:27 10° SSW
Cosmos 839 Rocket 4.1 06:54:12 10° NW 07:00:47 64° WSW 07:06:49 10° SSE
Cosmos 1633 4.3 06:59:12 10° WSW 07:01:11 14° WNW 07:03:11 10° NW
PAYLOAD A 4.1 06:56:11 10° N 07:01:32 69° WNW 07:06:55 10° SSW
YAOGAN 1 2.7 06:58:14 10° NNE 07:02:35 81° ESE 07:06:56 10° S
Cosmos 158 Rocket 4.3 06:59:01 10° SSW 07:04:18 76° ESE 07:09:43 10° NNE
Abrixas rocket 2.3 07:01:33 11° W 07:04:42 67° NNW 07:08:03 10° ENE
Cosmos 1515 3.6 07:01:38 10° N 07:05:29 82° W 07:09:18 10° S
Cosmos 864 Rocket 4.4 07:01:22 10° SSW 07:07:30 77° W 07:13:44 10° N
SJ-12 3.9 07:05:09 10° N 07:09:17 65° WNW 07:13:24 10° SSW
Cosmos 1943 3.8 07:05:08 10° WSW 07:10:15 35° NW 07:15:26 10° NNE
Cosmos 1269 Rocket 4.0 07:06:09 10° SSW 07:11:23 62° WNW 07:16:40 10° NNE
Meteor 1-12 Rocket 4.3 07:05:51 10° S 07:11:30 88° E 07:17:12 10° NNE
BREEZE-M DEB (TANK) 4.2 06:59:38 10° W 07:13:20 67° N 07:17:10 10° E
Cosmos 1602 Rocket 3.6 07:08:57 10° N 07:13:28 89° WSW 07:17:55 10° S
Lacrosse 5 rocket 3.0 07:14:31 10° NW 07:18:08 25° NNE 07:21:54 10° ENE
Cosmos 1943 Rocket 2.8 07:14:44 10° NW 07:19:41 35° WSW 07:24:37 10° S
USA 229 DEB 3.8 07:13:07 10° SW 07:19:57 63° NW 07:26:55 10° NE
Lacrosse 4 Rocket 1.9 07:16:02 10° NW 07:19:57 41° WSW 07:23:47 10° S
USA 229 3.8 07:13:13 10° SW 07:20:03 64° NW 07:27:01 10° NE
Cosmos 1544 Rocket 4.1 07:16:18 10° SW 07:20:22 37° WNW 07:24:29 10° N
Cosmos 2251 Rocket 4.4 07:20:39 10° S 07:25:54 59° ESE 07:31:12 10° NNE
Ariane Rocket 4.2 07:26:52 10° NNW 07:30:36 21° WNW 07:34:18 10° WSW
